Home   Weather   Veszprém   Past weeks
Flag for Hungary

Past Weather in Veszprém, Hungary — Yesterday and Last 2 Weeks

Now
63 °F

Clear.


Feels Like: 63 °F
Forecast: 77 / 54 °F
Wind: 5 mph from Southeast

Location: Ferenc Liszt International Airport

Current Time: Oct 20, 2019 at 7:38:25 pm

Latest Report: Oct 20, 2019 at 7:00 pm


Visibility: 10 mi

Pressure: 30.07 "Hg

Humidity: 68%

Dew Point: 52 °F

Location of VeszprémLocation

Past Weather in Veszprém — Graph

°F

Veszprém Temperature Yesterday

Maximum temperature yesterday: 73 °F (at 3:00 pm)
Minimum temperature yesterday: 45 °F (at 5:30 am)
Average temperature yesterday: 58 °F

High & Low Weather Summary for the Past Weeks

 TemperatureHumidityPressure
High77 °F (Oct 20, 2:30 pm)100% (Oct 6, 9:30 pm)30.30 "Hg (Oct 6, 9:30 pm)
Low28 °F (Oct 8, 6:30 am)41% (Oct 7, 3:30 pm)29.77 "Hg (Oct 5, 6:00 pm)
Average55 °F78%30.07 "Hg
* Reported Oct 5 6:00 pm — Oct 20 6:00 pm, Veszprém. Weather by CustomWeather, © 2019

Note: Actual official high and low records may vary slightly from our data, if they occured in-between our weather recording intervals... More about our weather records

Advertising

Veszprém Weather History for the Previous 24 Hours

Scroll right to see more
 ConditionsComfort  
Time TempWeatherWind HumidityBarometerVisibility
6:00 pm
Sun, Oct 20
70 °FClear.6 mph57%30.04 "Hg10 mi
5:30 pm73 °FSunny.8 mph47%30.04 "Hg10 mi
5:00 pm73 °FSunny.12 mph47%30.04 "Hg10 mi
4:30 pm75 °FSunny.12 mph41%30.04 "Hg10 mi
4:00 pm75 °FSunny.14 mph44%30.04 "Hg10 mi
3:30 pm77 °FSunny.14 mph42%30.04 "Hg10 mi
3:00 pm77 °FSunny.13 mph42%30.04 "Hg10 mi
2:30 pm77 °FPassing clouds.12 mph44%30.04 "HgN/A
2:00 pm75 °FPassing clouds.14 mph47%30.04 "HgN/A
1:30 pm75 °FPassing clouds.13 mph47%30.04 "HgN/A
1:00 pm73 °FPassing clouds.13 mph50%30.07 "HgN/A
12:30 pm73 °FPassing clouds.14 mph57%30.07 "HgN/A
12:00 pm73 °FPassing clouds.13 mph53%30.07 "HgN/A
11:30 am72 °FPassing clouds.13 mph61%30.07 "HgN/A
11:00 am70 °FPassing clouds.13 mph64%30.07 "HgN/A
10:30 am68 °FPassing clouds.9 mph69%30.09 "HgN/A
10:00 am66 °FPassing clouds.9 mph73%30.07 "HgN/A
9:30 am61 °FPassing clouds.6 mph83%30.07 "HgN/A
9:00 am59 °FSunny.6 mph82%30.07 "Hg10 mi
8:30 am55 °FSunny.7 mph100%30.07 "Hg10 mi
8:00 am54 °FSunny.6 mph100%30.07 "Hg10 mi
7:30 am50 °FSunny.6 mph100%30.07 "Hg10 mi
7:00 am50 °FClear.6 mph100%30.04 "Hg10 mi
6:30 am50 °FPassing clouds.6 mph100%30.04 "HgN/A
6:00 am52 °FClear.6 mph100%30.04 "Hg10 mi
5:30 am54 °FClear.9 mph100%30.04 "Hg10 mi
5:00 am54 °FClear.6 mph82%30.04 "Hg10 mi
4:30 am54 °FClear.7 mph82%30.04 "Hg10 mi
4:00 am50 °FClear.5 mph88%30.04 "Hg10 mi
3:30 am50 °FClear.3 mph88%30.04 "Hg10 mi
3:00 am50 °FClear.5 mph82%30.04 "Hg10 mi
2:30 am54 °FPassing clouds.5 mph77%30.04 "HgN/A
2:00 am54 °FClear.5 mph77%30.04 "Hg10 mi
1:30 am54 °FClear.6 mph77%30.04 "Hg10 mi
1:00 am50 °FClear.5 mph82%30.04 "Hg10 mi
12:30 am54 °FClear.6 mph82%30.04 "Hg10 mi
12:00 am55 °FClear.6 mph77%30.04 "Hg10 mi
11:30 pm
Sat, Oct 19
54 °FClear.5 mph77%30.04 "Hg10 mi
11:00 pm57 °FClear.6 mph72%30.04 "Hg10 mi
10:30 pm54 °FClear.3 mph82%30.01 "Hg10 mi
10:00 pm55 °FClear.5 mph77%30.01 "Hg10 mi
9:30 pm54 °FClear.5 mph77%30.01 "Hg10 mi
9:00 pm57 °FClear.3 mph72%30.01 "Hg10 mi
8:30 pm55 °FClear.3 mph77%30.01 "Hg10 mi
8:00 pm59 °FClear.5 mph72%30.01 "Hg10 mi
7:30 pm59 °FClear.3 mph77%30.01 "Hg10 mi
7:00 pm59 °FClear.5 mph72%30.01 "Hg10 mi
Weather by CustomWeather, © 2019

See weather overview